| time (UTC) | temp F | wind direction | speed knots | gust knots | rain 1hr in | rain 24hr in | rain mn in | humidity % | barometer mb |
| 20260507061016 | 71 | 352 | 0.0 | 0.0 | 0.00 | 0.00 | 0.00 | 44 | 1012.6 |
| 20260507060516 | 71 | 352 | 0.0 | 0.0 | 0.00 | 0.00 | 0.00 | 43 | 1012.5 |
| 20260507060016 | 71 | 351 | 0.0 | 0.0 | 0.00 | 0.00 | 0.00 | 43 | 1012.5 |
| 20260507055517 | 71 | 352 | 0.0 | 0.0 | 0.00 | 0.00 | 0.00 | 42 | 1012.6 |
| 20260507055017 | 71 | 328 | 0.0 | 0.0 | 0.00 | 0.00 | 0.00 | 41 | 1012.6 |
| 20260507054517 | 71 | 153 | 0.0 | 0.0 | 0.00 | 0.00 | 0.00 | 39 | 1012.6 |
| 20260507054017 | 71 | 153 | 0.0 | 0.0 | 0.00 | 0.00 | 0.00 | 38 | 1012.7 |
| 20260507053517 | 71 | 154 | 0.0 | 0.0 | 0.00 | 0.00 | 0.00 | 39 | 1012.7 |
| 20260507053017 | 72 | 154 | 0.0 | 0.0 | 0.00 | 0.00 | 0.00 | 38 | 1012.6 |
| 20260507052517 | 72 | 153 | 0.0 | 0.0 | 0.00 | 0.00 | 0.00 | 37 | 1012.6 |
| 20260507052017 | 73 | 154 | 0.0 | 0.0 | 0.00 | 0.00 | 0.00 | 36 | 1012.6 |
| 20260507051517 | 73 | 154 | 0.0 | 0.0 | 0.00 | 0.00 | 0.00 | 35 | 1012.6 |
| 20260507051017 | 74 | 153 | 0.0 | 0.0 | 0.00 | 0.00 | 0.00 | 31 | 1012.6 |
| 20260507050517 | 74 | 153 | 0.0 | 0.0 | 0.00 | 0.00 | 0.00 | 30 | 1012.5 |
| 20260507050017 | 75 | 153 | 0.0 | 0.0 | 0.00 | 0.00 | 0.00 | 29 | 1012.5 |
| 20260507045517 | 75 | 153 | 0.0 | 0.0 | 0.00 | 0.00 | 0.00 | 29 | 1012.5 |
| 20260507045017 | 76 | 154 | 0.0 | 0.0 | 0.00 | 0.00 | 0.00 | 28 | 1012.5 |
| 20260507044517 | 76 | 158 | 0.0 | 0.0 | 0.00 | 0.00 | 0.00 | 28 | 1012.5 |
| 20260507044017 | 76 | 156 | 0.0 | 0.0 | 0.00 | 0.00 | 0.00 | 29 | 1012.5 |
| 20260507043517 | 76 | 156 | 0.0 | 0.0 | 0.00 | 0.00 | 0.00 | 29 | 1012.5 |
| 20260507043017 | 76 | 163 | 0.0 | 0.0 | 0.00 | 0.00 | 0.00 | 29 | 1012.4 |
| 20260507042517 | 76 | 148 | 0.0 | 0.0 | 0.00 | 0.00 | 0.00 | 29 | 1012.4 |
| 20260507042017 | 77 | 148 | 0.0 | 0.0 | 0.00 | 0.00 | 0.00 | 28 | 1012.4 |
| 20260507041517 | 77 | 148 | 0.0 | 0.0 | 0.00 | 0.00 | 0.00 | 28 | 1012.4 |
| 20260507041017 | 77 | 145 | 0.0 | 0.0 | 0.00 | 0.00 | 0.00 | 28 | 1012.5 |
| 20260507040517 | 77 | 144 | 0.0 | 0.0 | 0.00 | 0.00 | 0.00 | 28 | 1012.3 |
| 20260507040017 | 77 | 142 | 0.0 | 0.0 | 0.00 | 0.00 | 0.00 | 28 | 1012.3 |
| 20260507035517 | 77 | 143 | 0.0 | 0.0 | 0.00 | 0.00 | 0.00 | 28 | 1012.2 |
| 20260507035017 | 77 | 142 | 0.0 | 0.0 | 0.00 | 0.00 | 0.00 | 29 | 1012.1 |
| 20260507034517 | 77 | 151 | 0.0 | 0.0 | 0.00 | 0.00 | 0.00 | 29 | 1012.1 |
| 20260507034017 | 78 | 89 | 0.0 | 0.0 | 0.00 | 0.00 | 0.00 | 29 | 1012.0 |
| 20260507033517 | 78 | 89 | 0.0 | 0.0 | 0.00 | 0.00 | 0.00 | 28 | 1011.9 |
| 20260507033017 | 78 | 89 | 0.0 | 0.0 | 0.00 | 0.00 | 0.00 | 28 | 1011.8 |
| 20260507032517 | 78 | 84 | 0.0 | 0.0 | 0.00 | 0.00 | 0.00 | 28 | 1011.7 |
| 20260507032017 | 79 | 98 | 0.0 | 0.0 | 0.00 | 0.00 | 0.00 | 28 | 1011.6 |
| 20260507031517 | 79 | 112 | 0.0 | 0.0 | 0.00 | 0.00 | 0.00 | 28 | 1011.5 |
| 20260507031017 | 79 | 104 | 0.0 | 0.0 | 0.00 | 0.00 | 0.00 | 27 | 1011.4 |
| 20260507030517 | 80 | 109 | 0.0 | 0.0 | 0.00 | 0.00 | 0.00 | 27 | 1011.3 |
| 20260507030017 | 80 | 98 | 0.0 | 0.0 | 0.00 | 0.00 | 0.00 | 26 | 1011.3 |
| 20260507025517 | 81 | 113 | 0.0 | 0.0 | 0.00 | 0.00 | 0.00 | 26 | 1011.3 |
| 20260507025017 | 80 | 104 | 0.0 | 0.0 | 0.00 | 0.00 | 0.00 | 26 | 1011.3 |
| 20260507024517 | 80 | 110 | 0.0 | 0.0 | 0.00 | 0.00 | 0.00 | 26 | 1011.1 |
| 20260507024017 | 80 | 96 | 0.0 | 0.0 | 0.00 | 0.00 | 0.00 | 26 | 1011.0 |
| 20260507023517 | 81 | 104 | 0.0 | 0.0 | 0.00 | 0.00 | 0.00 | 26 | 1010.9 |
| 20260507023017 | 81 | 100 | 0.0 | 0.0 | 0.00 | 0.00 | 0.00 | 26 | 1010.8 |
| 20260507022517 | 82 | 103 | 0.0 | 0.0 | 0.00 | 0.00 | 0.00 | 25 | 1010.8 |
| 20260507022017 | 82 | 102 | 0.0 | 0.9 | 0.00 | 0.00 | 0.00 | 25 | 1010.7 |
| 20260507021518 | 82 | 68 | 0.0 | 0.0 | 0.00 | 0.00 | 0.00 | 24 | 1010.7 |
| 20260507021017 | 83 | 72 | 0.0 | 0.0 | 0.00 | 0.00 | 0.00 | 24 | 1010.6 |
| 20260507020518 | 83 | 91 | 0.0 | 0.0 | 0.00 | 0.00 | 0.00 | 24 | 1010.6 |
| 20260507020018 | 84 | 99 | 0.0 | 0.0 | 0.00 | 0.00 | 0.00 | 23 | 1010.5 |
| 20260507015518 | 84 | 103 | 0.0 | 0.0 | 0.00 | 0.00 | 0.00 | 23 | 1010.4 |
| 20260507015018 | 85 | 91 | 0.0 | 0.9 | 0.00 | 0.00 | 0.00 | 22 | 1010.3 |
| 20260507014518 | 86 | 104 | 0.0 | 2.6 | 0.00 | 0.00 | 0.00 | 22 | 1010.5 |
| 20260507014018 | 86 | 131 | 0.0 | 0.0 | 0.00 | 0.00 | 0.00 | 22 | 1010.4 |
| 20260507013518 | 86 | 118 | 0.0 | 0.9 | 0.00 | 0.00 | 0.00 | 22 | 1010.3 |
| 20260507013018 | 86 | 124 | 0.0 | 0.0 | 0.00 | 0.00 | 0.00 | 21 | 1010.3 |
| 20260507012518 | 86 | 117 | 0.0 | 0.9 | 0.00 | 0.00 | 0.00 | 21 | 1010.3 |
| 20260507012018 | 86 | 83 | 0.0 | 0.0 | 0.00 | 0.00 | 0.00 | 21 | 1010.3 |
| 20260507011518 | 87 | 110 | 0.0 | 0.0 | 0.00 | 0.00 | 0.00 | 21 | 1010.4 |
| 20260507011018 | 87 | 96 | 0.0 | 0.9 | 0.00 | 0.00 | 0.00 | 21 | 1010.3 |
| 20260507010518 | 87 | 69 | 0.0 | 0.0 | 0.00 | 0.00 | 0.00 | 20 | 1010.3 |
| 20260507010018 | 87 | 111 | 0.0 | 0.9 | 0.00 | 0.00 | 0.00 | 20 | 1010.2 |
| 20260507005518 | 87 | 77 | 0.0 | 0.0 | 0.00 | 0.00 | 0.00 | 20 | 1010.2 |
| 20260507005018 | 88 | 106 | 0.0 | 0.0 | 0.00 | 0.00 | 0.00 | 20 | 1010.2 |
| 20260507004518 | 88 | 163 | 0.0 | 0.9 | 0.00 | 0.00 | 0.00 | 20 | 1010.2 |
| 20260507004018 | 88 | 117 | 0.0 | 0.9 | 0.00 | 0.00 | 0.00 | 20 | 1010.3 |
| 20260507003518 | 87 | 131 | 0.0 | 0.0 | 0.00 | 0.00 | 0.00 | 20 | 1010.3 |
| 20260507003018 | 87 | 88 | 0.0 | 0.9 | 0.00 | 0.00 | 0.00 | 20 | 1010.2 |
| 20260507002518 | 87 | 129 | 0.0 | 0.9 | 0.00 | 0.00 | 0.00 | 20 | 1010.1 |
| 20260507002018 | 87 | 110 | 0.0 | 0.0 | 0.00 | 0.00 | 0.00 | 20 | 1010.1 |
| 20260507001518 | 87 | 96 | 0.0 | 0.0 | 0.00 | 0.00 | 0.00 | 19 | 1010.1 |
| 20260507001018 | 87 | 115 | 0.0 | 0.0 | 0.00 | 0.00 | 0.00 | 19 | 1010.0 |
| 20260507000518 | 88 | 105 | 0.0 | 0.0 | 0.00 | 0.00 | 0.00 | 19 | 1010.0 |
| 20260507000018 | 88 | 68 | 0.0 | 0.9 | 0.00 | 0.00 | 0.00 | 20 | 1010.0 |
| 20260506235518 | 89 | 96 | 0.0 | 0.9 | 0.00 | 0.00 | 0.00 | 18 | 1010.0 |
| 20260506235018 | 88 | 214 | 0.0 | 0.0 | 0.00 | 0.00 | 0.00 | 19 | 1010.0 |
| 20260506234518 | 88 | 113 | 0.0 | 0.0 | 0.00 | 0.00 | 0.00 | 19 | 1010.0 |
| 20260506234018 | 88 | 102 | 0.0 | 0.0 | 0.00 | 0.00 | 0.00 | 19 | 1010.0 |
| 20260506233518 | 88 | 150 | 0.0 | 3.5 | 0.00 | 0.00 | 0.00 | 19 | 1010.1 |
| 20260506233018 | 89 | 84 | 0.0 | 0.0 | 0.00 | 0.00 | 0.00 | 18 | 1010.2 |
| 20260506232518 | 89 | 73 | 0.0 | 0.0 | 0.00 | 0.00 | 0.00 | 19 | 1010.3 |
| 20260506232018 | 89 | 160 | 0.0 | 0.0 | 0.00 | 0.00 | 0.00 | 19 | 1010.2 |
| 20260506231518 | 88 | 91 | 0.0 | 0.0 | 0.00 | 0.00 | 0.00 | 19 | 1010.3 |
| 20260506231018 | 88 | 97 | 0.0 | 0.0 | 0.00 | 0.00 | 0.00 | 19 | 1010.3 |
| 20260506230518 | 88 | 89 | 0.0 | 0.9 | 0.00 | 0.00 | 0.00 | 19 | 1010.4 |
| 20260506230018 | 88 | 324 | 0.0 | 0.0 | 0.00 | 0.00 | 0.00 | 19 | 1010.4 |
| 20260506225518 | 88 | 100 | 0.0 | 0.0 | 0.00 | 0.00 | 0.00 | 19 | 1010.5 |
| 20260506225018 | 89 | 85 | 0.0 | 0.9 | 0.00 | 0.00 | 0.00 | 19 | 1010.5 |
| 20260506224518 | 89 | 92 | 0.0 | 0.0 | 0.00 | 0.00 | 0.00 | 18 | 1010.5 |
| 20260506224018 | 89 | 205 | 0.0 | 0.9 | 0.00 | 0.00 | 0.00 | 19 | 1010.6 |
| 20260506223518 | 89 | 101 | 0.0 | 0.9 | 0.00 | 0.00 | 0.00 | 18 | 1010.8 |
| 20260506223018 | 90 | 88 | 0.0 | 0.0 | 0.00 | 0.00 | 0.00 | 18 | 1010.8 |
| 20260506222518 | 90 | 68 | 0.0 | 0.9 | 0.00 | 0.00 | 0.00 | 18 | 1010.9 |
| 20260506222018 | 89 | 127 | 0.0 | 0.9 | 0.00 | 0.00 | 0.00 | 18 | 1011.0 |
| 20260506221518 | 89 | 179 | 0.0 | 0.9 | 0.00 | 0.00 | 0.00 | 18 | 1011.1 |
| 20260506221018 | 88 | 98 | 0.0 | 0.0 | 0.00 | 0.00 | 0.00 | 19 | 1011.1 |
| 20260506220519 | 89 | 132 | 0.0 | 0.0 | 0.00 | 0.00 | 0.00 | 18 | 1011.3 |
| 20260506220019 | 89 | 91 | 0.0 | 0.0 | 0.00 | 0.00 | 0.00 | 18 | 1011.4 |
| 20260506215519 | 88 | 65 | 0.0 | 0.9 | 0.00 | 0.00 | 0.00 | 19 | 1011.5 |
| 20260506215019 | 88 | 112 | 0.0 | 0.9 | 0.00 | 0.00 | 0.00 | 18 | 1011.6 |
| 20260506214519 | 89 | 304 | 0.0 | 0.0 | 0.00 | 0.00 | 0.00 | 18 | 1011.6 |
| 20260506214019 | 88 | 105 | 0.0 | 0.9 | 0.00 | 0.00 | 0.00 | 19 | 1011.7 |
| 20260506213519 | 88 | 331 | 0.0 | 1.7 | 0.00 | 0.00 | 0.00 | 18 | 1011.8 |
| 20260506213019 | 87 | 149 | 0.0 | 0.9 | 0.00 | 0.00 | 0.00 | 19 | 1011.9 |
| 20260506212519 | 87 | 110 | 0.0 | 0.0 | 0.00 | 0.00 | 0.00 | 19 | 1011.9 |
| 20260506212019 | 87 | 122 | 0.0 | 0.9 | 0.00 | 0.00 | 0.00 | 18 | 1012.0 |
| 20260506211519 | 88 | 105 | 0.0 | 0.9 | 0.00 | 0.00 | 0.00 | 19 | 1012.0 |
| 20260506211019 | 88 | 98 | 0.0 | 3.5 | 0.00 | 0.00 | 0.00 | 19 | 1012.1 |
| 20260506210519 | 88 | 357 | 0.0 | 1.7 | 0.00 | 0.00 | 0.00 | 19 | 1012.1 |
| 20260506210019 | 87 | 103 | 0.0 | 0.0 | 0.00 | 0.00 | 0.00 | 19 | 1012.3 |
| 20260506205519 | 87 | 56 | 0.0 | 0.9 | 0.00 | 0.00 | 0.00 | 19 | 1012.3 |
| 20260506205019 | 86 | 78 | 0.0 | 0.9 | 0.00 | 0.00 | 0.00 | 20 | 1012.3 |
| 20260506204519 | 86 | 9 | 0.0 | 0.0 | 0.00 | 0.00 | 0.00 | 20 | 1012.4 |
| 20260506204019 | 86 | 114 | 0.0 | 1.7 | 0.00 | 0.00 | 0.00 | 20 | 1012.6 |
| 20260506203519 | 87 | 98 | 0.0 | 0.9 | 0.00 | 0.00 | 0.00 | 20 | 1012.6 |
| 20260506203019 | 87 | 56 | 0.0 | 0.9 | 0.00 | 0.00 | 0.00 | 20 | 1012.7 |
| 20260506202519 | 86 | 95 | 0.0 | 0.9 | 0.00 | 0.00 | 0.00 | 20 | 1012.7 |
| 20260506202019 | 86 | 47 | 0.0 | 0.9 | 0.00 | 0.00 | 0.00 | 22 | 1012.8 |
| 20260506201519 | 85 | 92 | 0.0 | 0.0 | 0.00 | 0.00 | 0.00 | 22 | 1012.9 |
| 20260506201019 | 86 | 243 | 0.0 | 0.0 | 0.00 | 0.00 | 0.00 | 21 | 1013.0 |
| 20260506200519 | 86 | 102 | 0.0 | 0.9 | 0.00 | 0.00 | 0.00 | 21 | 1013.1 |
| 20260506200019 | 85 | 170 | 0.0 | 1.7 | 0.00 | 0.00 | 0.00 | 22 | 1013.2 |
| 20260506195519 | 84 | 124 | 0.0 | 0.0 | 0.00 | 0.00 | 0.00 | 23 | 1013.3 |
| 20260506195019 | 85 | 120 | 0.0 | 0.0 | 0.00 | 0.00 | 0.00 | 22 | 1013.4 |
| 20260506194519 | 84 | 155 | 0.0 | 0.0 | 0.00 | 0.00 | 0.00 | 23 | 1013.4 |
| 20260506194019 | 85 | 110 | 0.0 | 0.0 | 0.00 | 0.00 | 0.00 | 22 | 1013.5 |
| 20260506193519 | 85 | 331 | 0.0 | 0.0 | 0.00 | 0.00 | 0.00 | 22 | 1013.6 |
| 20260506193019 | 84 | 121 | 0.0 | 2.6 | 0.00 | 0.00 | 0.00 | 23 | 1013.7 |
| 20260506192519 | 84 | 129 | 0.0 | 1.7 | 0.00 | 0.00 | 0.00 | 23 | 1013.8 |
| 20260506192019 | 83 | 89 | 0.0 | 0.9 | 0.00 | 0.00 | 0.00 | 23 | 1013.9 |
| 20260506191519 | 84 | 84 | 0.0 | 0.0 | 0.00 | 0.00 | 0.00 | 23 | 1013.9 |
| 20260506191019 | 84 | 133 | 0.0 | 0.0 | 0.00 | 0.00 | 0.00 | 23 | 1014.0 |
| 20260506190519 | 84 | 122 | 0.0 | 0.9 | 0.00 | 0.00 | 0.00 | 23 | 1014.0 |
| 20260506190019 | 83 | 142 | 0.0 | 0.0 | 0.00 | 0.00 | 0.00 | 24 | 1014.1 |
| 20260506185519 | 82 | 266 | 0.0 | 0.0 | 0.00 | 0.00 | 0.00 | 24 | 1014.2 |
| 20260506185019 | 82 | 357 | 0.0 | 0.0 | 0.00 | 0.00 | 0.00 | 24 | 1014.2 |
| 20260506184519 | 82 | 79 | 0.0 | 0.0 | 0.00 | 0.00 | 0.00 | 24 | 1014.3 |
| 20260506184019 | 82 | 90 | 0.0 | 0.0 | 0.00 | 0.00 | 0.00 | 24 | 1014.4 |
| 20260506183519 | 82 | 13 | 0.0 | 0.9 | 0.00 | 0.00 | 0.00 | 24 | 1014.5 |
| 20260506183019 | 82 | 60 | 0.0 | 0.0 | 0.00 | 0.00 | 0.00 | 26 | 1014.5 |
| 20260506182519 | 81 | 22 | 0.0 | 0.0 | 0.00 | 0.00 | 0.00 | 26 | 1014.6 |
| 20260506182019 | 81 | 119 | 0.0 | 0.0 | 0.00 | 0.00 | 0.00 | 27 | 1014.6 |
| 20260506181519 | 80 | 112 | 0.0 | 0.0 | 0.00 | 0.00 | 0.00 | 27 | 1014.6 |
| 20260506181020 | 80 | 153 | 0.0 | 0.0 | 0.00 | 0.00 | 0.00 | 28 | 1014.6 |
| 20260506180520 | 78 | 76 | 0.0 | 0.0 | 0.00 | 0.00 | 0.00 | 28 | 1014.6 |
| 20260506180020 | 79 | 97 | 0.0 | 0.0 | 0.00 | 0.00 | 0.00 | 28 | 1014.7 |
| 20260506175520 | 80 | 99 | 0.0 | 0.0 | 0.00 | 0.00 | 0.00 | 27 | 1014.6 |
| 20260506175020 | 80 | 69 | 0.0 | 0.0 | 0.00 | 0.00 | 0.00 | 28 | 1014.7 |
| 20260506174520 | 78 | 109 | 0.0 | 0.0 | 0.00 | 0.00 | 0.00 | 29 | 1014.7 |
| 20260506174020 | 78 | 109 | 0.0 | 0.0 | 0.00 | 0.00 | 0.00 | 29 | 1014.7 |
| 20260506173520 | 77 | 45 | 0.0 | 0.0 | 0.00 | 0.00 | 0.00 | 30 | 1014.7 |
| 20260506173020 | 78 | 88 | 0.0 | 0.0 | 0.00 | 0.00 | 0.00 | 29 | 1014.7 |
| 20260506172520 | 79 | 108 | 0.0 | 0.0 | 0.00 | 0.00 | 0.00 | 30 | 1014.8 |
| 20260506172020 | 78 | 333 | 0.0 | 0.0 | 0.00 | 0.00 | 0.00 | 30 | 1014.7 |
| 20260506171520 | 77 | 122 | 0.0 | 0.9 | 0.00 | 0.00 | 0.00 | 30 | 1014.8 |
| 20260506171020 | 76 | 139 | 0.0 | 0.9 | 0.00 | 0.00 | 0.00 | 31 | 1014.7 |
| 20260506170520 | 75 | 91 | 0.0 | 0.9 | 0.00 | 0.00 | 0.00 | 32 | 1014.7 |
| 20260506170020 | 75 | 13 | 0.0 | 3.5 | 0.00 | 0.00 | 0.00 | 32 | 1014.7 |
| 20260506165520 | 74 | 71 | 0.0 | 0.0 | 0.00 | 0.00 | 0.00 | 33 | 1014.6 |
| 20260506165020 | 74 | 90 | 0.0 | 0.0 | 0.00 | 0.00 | 0.00 | 32 | 1014.7 |
| 20260506164520 | 74 | 96 | 0.0 | 0.9 | 0.00 | 0.00 | 0.00 | 32 | 1014.7 |
| 20260506164020 | 76 | 90 | 0.0 | 0.9 | 0.00 | 0.00 | 0.00 | 31 | 1014.7 |
| 20260506163520 | 75 | 94 | 0.0 | 0.0 | 0.00 | 0.00 | 0.00 | 31 | 1014.6 |
| 20260506163020 | 75 | 20 | 0.0 | 0.0 | 0.00 | 0.00 | 0.00 | 31 | 1014.6 |
| 20260506162520 | 75 | 118 | 0.0 | 0.0 | 0.00 | 0.00 | 0.00 | 30 | 1014.7 |
| 20260506162020 | 75 | 204 | 0.0 | 0.0 | 0.00 | 0.00 | 0.00 | 31 | 1014.7 |
| 20260506161520 | 75 | 158 | 0.0 | 0.0 | 0.00 | 0.00 | 0.00 | 32 | 1014.6 |
| 20260506161020 | 75 | 158 | 0.0 | 0.0 | 0.00 | 0.00 | 0.00 | 31 | 1014.6 |
| 20260506160520 | 75 | 311 | 0.0 | 0.0 | 0.00 | 0.00 | 0.00 | 32 | 1014.6 |
| 20260506160020 | 74 | 276 | 0.0 | 0.0 | 0.00 | 0.00 | 0.00 | 33 | 1014.6 |
| 20260506155520 | 74 | 143 | 0.0 | 0.0 | 0.00 | 0.00 | 0.00 | 34 | 1014.6 |
| 20260506155020 | 74 | 155 | 0.0 | 0.0 | 0.00 | 0.00 | 0.00 | 34 | 1014.5 |
| 20260506154520 | 73 | 109 | 0.0 | 0.0 | 0.00 | 0.00 | 0.00 | 36 | 1014.6 |
| 20260506154020 | 72 | 91 | 0.0 | 0.0 | 0.00 | 0.00 | 0.00 | 38 | 1014.6 |
| 20260506153520 | 72 | 90 | 0.0 | 0.0 | 0.00 | 0.00 | 0.00 | 37 | 1014.5 |
| 20260506153020 | 71 | 103 | 0.0 | 0.0 | 0.00 | 0.00 | 0.00 | 38 | 1014.5 |
| 20260506152520 | 71 | 162 | 0.0 | 0.0 | 0.00 | 0.00 | 0.00 | 38 | 1014.6 |
| 20260506152020 | 71 | 143 | 0.0 | 0.0 | 0.00 | 0.00 | 0.00 | 39 | 1014.5 |
| 20260506151520 | 69 | 92 | 0.0 | 0.0 | 0.00 | 0.00 | 0.00 | 43 | 1014.6 |
| 20260506151020 | 69 | 92 | 0.0 | 0.0 | 0.00 | 0.00 | 0.00 | 43 | 1014.6 |
| 20260506150520 | 68 | 92 | 0.0 | 0.0 | 0.00 | 0.00 | 0.00 | 45 | 1014.5 |
| 20260506150020 | 67 | 103 | 0.0 | 0.0 | 0.00 | 0.00 | 0.00 | 46 | 1014.5 |
| 20260506145520 | 67 | 103 | 0.0 | 0.0 | 0.00 | 0.00 | 0.00 | 46 | 1014.5 |
| 20260506145020 | 66 | 96 | 0.0 | 0.0 | 0.00 | 0.00 | 0.00 | 49 | 1014.5 |
| 20260506144520 | 65 | 96 | 0.0 | 0.0 | 0.00 | 0.00 | 0.00 | 49 | 1014.5 |
| 20260506144020 | 64 | 96 | 0.0 | 0.0 | 0.00 | 0.00 | 0.00 | 52 | 1014.5 |
| 20260506143520 | 63 | 141 | 0.0 | 0.0 | 0.00 | 0.00 | 0.00 | 52 | 1014.4 |
| 20260506143020 | 62 | 105 | 0.0 | 0.0 | 0.00 | 0.00 | 0.00 | 54 | 1014.4 |
| 20260506142520 | 61 | 124 | 0.0 | 0.0 | 0.00 | 0.00 | 0.00 | 55 | 1014.3 |
| 20260506142021 | 61 | 142 | 0.0 | 0.0 | 0.00 | 0.00 | 0.00 | 56 | 1014.3 |
| 20260506141520 | 60 | 132 | 0.0 | 0.0 | 0.00 | 0.00 | 0.00 | 58 | 1014.3 |
| 20260506141021 | 59 | 108 | 0.0 | 0.0 | 0.00 | 0.00 | 0.00 | 60 | 1014.3 |
| 20260506140521 | 59 | 146 | 0.0 | 0.0 | 0.00 | 0.00 | 0.00 | 61 | 1014.2 |
| 20260506140021 | 58 | 145 | 0.0 | 0.0 | 0.00 | 0.00 | 0.00 | 62 | 1014.2 |
| 20260506135521 | 57 | 145 | 0.0 | 0.0 | 0.00 | 0.00 | 0.00 | 63 | 1014.0 |
| 20260506135021 | 56 | 145 | 0.0 | 0.0 | 0.00 | 0.00 | 0.00 | 65 | 1013.9 |
| 20260506134521 | 56 | 197 | 0.0 | 0.0 | 0.00 | 0.00 | 0.00 | 67 | 1013.9 |
| 20260506134021 | 55 | 197 | 0.0 | 0.0 | 0.00 | 0.00 | 0.00 | 68 | 1013.8 |
| 20260506133521 | 55 | 198 | 0.0 | 0.0 | 0.00 | 0.00 | 0.00 | 67 | 1013.8 |
| 20260506133021 | 55 | 198 | 0.0 | 0.0 | 0.00 | 0.00 | 0.00 | 67 | 1013.8 |
| 20260506132521 | 54 | 198 | 0.0 | 0.0 | 0.00 | 0.00 | 0.00 | 68 | 1013.7 |
| 20260506132021 | 54 | 198 | 0.0 | 0.0 | 0.00 | 0.00 | 0.00 | 67 | 1013.7 |
| 20260506131521 | 54 | 197 | 0.0 | 0.0 | 0.00 | 0.00 | 0.00 | 67 | 1013.6 |
| 20260506131021 | 54 | 198 | 0.0 | 0.0 | 0.00 | 0.00 | 0.00 | 67 | 1013.6 |
| 20260506130521 | 55 | 198 | 0.0 | 0.0 | 0.00 | 0.00 | 0.00 | 67 | 1013.4 |
| 20260506130021 | 55 | 197 | 0.0 | 0.0 | 0.00 | 0.00 | 0.00 | 66 | 1013.4 |
| 20260506125521 | 55 | 197 | 0.0 | 0.0 | 0.00 | 0.00 | 0.00 | 65 | 1013.4 |
| 20260506125021 | 55 | 197 | 0.0 | 0.0 | 0.00 | 0.00 | 0.00 | 64 | 1013.4 |
| 20260506124521 | 55 | 198 | 0.0 | 0.0 | 0.00 | 0.00 | 0.00 | 64 | 1013.3 |
| 20260506124021 | 55 | 197 | 0.0 | 0.0 | 0.00 | 0.00 | 0.00 | 64 | 1013.3 |
| 20260506123521 | 55 | 197 | 0.0 | 0.0 | 0.00 | 0.00 | 0.00 | 64 | 1013.1 |
| 20260506123021 | 55 | 198 | 0.0 | 0.0 | 0.00 | 0.00 | 0.00 | 65 | 1013.1 |
| 20260506122521 | 55 | 198 | 0.0 | 0.0 | 0.00 | 0.00 | 0.00 | 65 | 1013.1 |
| 20260506122021 | 55 | 197 | 0.0 | 0.0 | 0.00 | 0.00 | 0.00 | 64 | 1013.0 |
| 20260506121521 | 55 | 203 | 0.0 | 0.0 | 0.00 | 0.00 | 0.00 | 64 | 1013.0 |
| 20260506121021 | 55 | 203 | 0.0 | 0.0 | 0.00 | 0.00 | 0.00 | 65 | 1013.0 |
| 20260506120521 | 55 | 222 | 0.0 | 0.0 | 0.00 | 0.00 | 0.00 | 66 | 1013.0 |
| 20260506120021 | 54 | 222 | 0.0 | 0.0 | 0.00 | 0.00 | 0.00 | 66 | 1012.9 |
| 20260506115521 | 54 | 222 | 0.0 | 0.0 | 0.00 | 0.00 | 0.00 | 66 | 1012.9 |
| 20260506115021 | 55 | 221 | 0.0 | 0.0 | 0.00 | 0.00 | 0.00 | 65 | 1012.9 |
| 20260506114521 | 55 | 222 | 0.0 | 0.0 | 0.00 | 0.00 | 0.00 | 65 | 1012.8 |
| 20260506114021 | 55 | 222 | 0.0 | 0.0 | 0.00 | 0.00 | 0.00 | 64 | 1012.8 |
| 20260506113521 | 55 | 222 | 0.0 | 0.0 | 0.00 | 0.00 | 0.00 | 65 | 1012.8 |
| 20260506113021 | 56 | 222 | 0.0 | 0.0 | 0.00 | 0.00 | 0.00 | 62 | 1012.8 |
| 20260506112521 | 57 | 221 | 0.0 | 0.0 | 0.00 | 0.00 | 0.00 | 62 | 1012.7 |
| 20260506112021 | 57 | 222 | 0.0 | 0.0 | 0.00 | 0.00 | 0.00 | 61 | 1012.7 |
| 20260506111521 | 57 | 222 | 0.0 | 0.0 | 0.00 | 0.00 | 0.00 | 60 | 1012.8 |
| 20260506111021 | 57 | 222 | 0.0 | 0.0 | 0.00 | 0.00 | 0.00 | 60 | 1012.7 |
| 20260506110521 | 57 | 222 | 0.0 | 0.0 | 0.00 | 0.00 | 0.00 | 60 | 1012.7 |
| 20260506110021 | 57 | 222 | 0.0 | 0.0 | 0.00 | 0.00 | 0.00 | 60 | 1012.8 |
| 20260506105521 | 57 | 222 | 0.0 | 0.0 | 0.00 | 0.00 | 0.00 | 61 | 1012.7 |
| 20260506105021 | 56 | 222 | 0.0 | 0.0 | 0.00 | 0.00 | 0.00 | 62 | 1012.7 |
| 20260506104521 | 56 | 222 | 0.0 | 0.0 | 0.00 | 0.00 | 0.00 | 61 | 1012.7 |
| 20260506104021 | 56 | 222 | 0.0 | 0.0 | 0.00 | 0.00 | 0.00 | 62 | 1012.6 |
| 20260506103521 | 56 | 222 | 0.0 | 0.0 | 0.00 | 0.00 | 0.00 | 63 | 1012.7 |
| 20260506103021 | 56 | 222 | 0.0 | 0.0 | 0.00 | 0.00 | 0.00 | 62 | 1012.6 |
| 20260506102522 | 56 | 222 | 0.0 | 0.0 | 0.00 | 0.00 | 0.00 | 62 | 1012.6 |
| 20260506102021 | 57 | 222 | 0.0 | 0.0 | 0.00 | 0.00 | 0.00 | 62 | 1012.6 |
| 20260506101521 | 57 | 222 | 0.0 | 0.0 | 0.00 | 0.00 | 0.00 | 61 | 1012.4 |
| 20260506101021 | 56 | 222 | 0.0 | 0.0 | 0.00 | 0.00 | 0.00 | 61 | 1012.3 |
| 20260506100522 | 57 | 222 | 0.0 | 0.0 | 0.00 | 0.00 | 0.00 | 60 | 1012.4 |
| 20260506100022 | 57 | 222 | 0.0 | 0.0 | 0.00 | 0.00 | 0.00 | 59 | 1012.4 |
| 20260506095522 | 57 | 222 | 0.0 | 0.0 | 0.00 | 0.00 | 0.00 | 58 | 1012.4 |
| 20260506095022 | 58 | 222 | 0.0 | 0.0 | 0.00 | 0.00 | 0.00 | 57 | 1012.4 |
| 20260506094522 | 58 | 222 | 0.0 | 0.0 | 0.00 | 0.00 | 0.00 | 57 | 1012.4 |
| 20260506094022 | 58 | 222 | 0.0 | 0.0 | 0.00 | 0.00 | 0.00 | 57 | 1012.3 |
| 20260506093522 | 58 | 297 | 0.0 | 0.0 | 0.00 | 0.00 | 0.00 | 57 | 1012.3 |
| 20260506093022 | 58 | 297 | 0.0 | 0.0 | 0.00 | 0.00 | 0.00 | 56 | 1012.5 |
| 20260506092522 | 58 | 298 | 0.0 | 0.0 | 0.00 | 0.00 | 0.00 | 56 | 1012.5 |
| 20260506092022 | 58 | 301 | 0.0 | 0.0 | 0.00 | 0.00 | 0.00 | 56 | 1012.5 |
| 20260506091522 | 59 | 301 | 0.0 | 0.0 | 0.00 | 0.00 | 0.00 | 56 | 1012.6 |
| 20260506091022 | 59 | 300 | 0.0 | 0.0 | 0.00 | 0.00 | 0.00 | 56 | 1012.6 |
| 20260506090522 | 59 | 300 | 0.0 | 0.0 | 0.00 | 0.00 | 0.00 | 55 | 1012.5 |
| 20260506090022 | 60 | 301 | 0.0 | 0.0 | 0.00 | 0.00 | 0.00 | 54 | 1012.5 |
| 20260506085522 | 60 | 301 | 0.0 | 0.0 | 0.00 | 0.00 | 0.00 | 52 | 1012.5 |
| 20260506085022 | 60 | 281 | 0.0 | 0.0 | 0.00 | 0.00 | 0.00 | 51 | 1012.6 |
| 20260506084522 | 60 | 281 | 0.0 | 0.0 | 0.00 | 0.00 | 0.00 | 51 | 1012.6 |
| 20260506084022 | 60 | 281 | 0.0 | 0.0 | 0.00 | 0.00 | 0.00 | 51 | 1012.6 |
| 20260506083522 | 60 | 281 | 0.0 | 0.0 | 0.00 | 0.00 | 0.00 | 52 | 1012.6 |
| 20260506083022 | 60 | 305 | 0.0 | 0.0 | 0.00 | 0.00 | 0.00 | 51 | 1012.6 |
| 20260506082522 | 61 | 304 | 0.0 | 0.0 | 0.00 | 0.00 | 0.00 | 51 | 1012.6 |
| 20260506082022 | 61 | 306 | 0.0 | 0.0 | 0.00 | 0.00 | 0.00 | 51 | 1012.6 |
| 20260506081522 | 60 | 324 | 0.0 | 0.0 | 0.00 | 0.00 | 0.00 | 52 | 1012.6 |
| 20260506081022 | 60 | 326 | 0.0 | 0.0 | 0.00 | 0.00 | 0.00 | 53 | 1012.6 |
| 20260506080522 | 60 | 326 | 0.0 | 0.0 | 0.00 | 0.00 | 0.00 | 54 | 1012.6 |
| 20260506073522 | 61 | 98 | 0.0 | 0.0 | 0.00 | 0.00 | 0.00 | 52 | 1012.6 |
| 20260506073022 | 61 | 97 | 0.0 | 0.0 | 0.00 | 0.00 | 0.00 | 52 | 1012.5 |
| 20260506072522 | 61 | 98 | 0.0 | 0.0 | 0.00 | 0.00 | 0.00 | 51 | 1012.5 |
| 20260506072022 | 61 | 98 | 0.0 | 0.0 | 0.00 | 0.00 | 0.00 | 52 | 1012.5 |
| 20260506071522 | 61 | 233 | 0.0 | 0.0 | 0.00 | 0.00 | 0.00 | 55 | 1012.5 |
| 20260506071022 | 61 | 233 | 0.0 | 0.0 | 0.00 | 0.00 | 0.00 | 55 | 1012.4 |
| 20260506070522 | 62 | 234 | 0.0 | 0.0 | 0.00 | 0.00 | 0.00 | 51 | 1012.3 |
| 20260506062023 | 63 | 233 | 0.0 | 0.0 | 0.00 | 0.00 | 0.00 | 45 | 1011.8 |
| 20260506061523 | 64 | 233 | 0.0 | 0.0 | 0.00 | 0.00 | 0.00 | 43 | 1011.7 |